DeKalb, IL

10:57 PM CST on January 21, 2018 (GMT -0600)
De Kalb Taylor Municipal

Weather History for KDKB - February, 2013

Change the Weather History Date:

Saturday, February 16, 2013

  Actual Average (KARR) Record (KARR)
Temperature  
Mean Temperature 14 °F -  
Max Temperature 18 °F 34 °F 49 °F (2011)
Min Temperature 10 °F 19 °F -7 °F (2007)
Degree Days  
Heating Degree Days 51    
Moisture  
Dew Point 4 °F    
Average Humidity 64    
Maximum Humidity 75    
Minimum Humidity 54    
Precipitation  
Precipitation 0.00 in - - ()
Sea Level Pressure  
Sea Level Pressure 30.15 in    
Wind  
Wind Speed 9 mph (NW)    
Max Wind Speed 17 mph    
Max Gust Speed 22 mph    
Visibility 10 miles    
Events      
Averages and records for this station are not official NWS values.
T = Trace of Precipitation, MM = Missing Value Source: NWS Daily Summary

Daily Weather History Graph

Daily Weather History Graph

Search for Another Location

Airport or City:

Trip Planner

Search our weather history database for the weather conditions in past years. The results will help you decide how hot, cold, wet, or windy it might be!

Date:

Astronomy

Feb. 16, 2013 Rise Set
Actual Time 6:48 AM CST 5:29 PM CST
Civil Twilight 6:20 AM CST 5:58 PM CST
Nautical Twilight 5:47 AM CST 6:30 PM CST
Astronomical Twilight 5:15 AM CST 7:02 PM CST
Moon 9:54 AM CST (2/16) No Moon Set
Length of Visible Light 11h 37m
Length of Day
10h 40m
Waxing Crescent, 39% of the Moon is Illuminated
Feb 16
Waxing Crescent
Feb 17
First Quarter
Feb 25
Full
Mar 4
Last Quarter
Mar 11
New

Hourly Weather History & Observations

Time (CST) Temp. Windchill Dew Point Humidity Pressure Visibility Wind Dir Wind Speed Gust Speed Precip Events Conditions
12:15 AM 16.3 °F 2.7 °F 7.2 °F 67% 30.16 in 10.0 mi NW 12.7 mph - N/A   Clear
12:35 AM 16.0 °F 4.4 °F 7.0 °F 68% 30.16 in 10.0 mi NW 9.2 mph - N/A   Clear
12:55 AM 15.4 °F 2.3 °F 6.6 °F 68% 30.16 in 10.0 mi NW 11.5 mph - N/A   Clear
1:15 AM 14.9 °F 1.6 °F 4.3 °F 63% 30.16 in 10.0 mi NNW 11.5 mph 19.6 mph N/A   Scattered Clouds
1:35 AM 14.7 °F 1.4 °F 4.1 °F 63% 30.16 in 10.0 mi NW 11.5 mph - N/A   Scattered Clouds
1:55 AM 14.0 °F 2.0 °F 3.6 °F 63% 30.16 in 10.0 mi NW 9.2 mph - N/A   Clear
2:15 AM 13.6 °F 1.6 °F 4.1 °F 66% 30.15 in 10.0 mi NW 9.2 mph - N/A   Clear
2:35 AM 13.1 °F 0.1 °F 3.4 °F 65% 30.15 in 10.0 mi NW 10.4 mph - N/A   Clear
2:55 AM 12.7 °F -1.1 °F 2.8 °F 65% 30.15 in 10.0 mi NW 11.5 mph 17.3 mph N/A   Clear
3:15 AM 12.6 °F -0.6 °F 2.8 °F 65% 30.14 in 10.0 mi NW 10.4 mph - N/A   Clear
3:35 AM 12.4 °F 0.0 °F 2.3 °F 64% 30.14 in 10.0 mi NW 9.2 mph - N/A   Clear
3:55 AM 12.2 °F 0.7 °F 2.1 °F 64% 30.14 in 10.0 mi NW 8.1 mph - N/A   Clear
4:15 AM 11.8 °F -0.7 °F 1.8 °F 64% 30.14 in 10.0 mi NW 9.2 mph - N/A   Clear
4:35 AM 11.7 °F -1.7 °F 2.1 °F 66% 30.14 in 10.0 mi NW 10.4 mph - N/A   Clear
4:55 AM 11.3 °F -2.2 °F 3.4 °F 70% 30.14 in 10.0 mi WNW 10.4 mph - N/A   Clear
5:15 AM 11.3 °F -2.2 °F 3.4 °F 70% 30.14 in 10.0 mi NW 10.4 mph - N/A   Clear
5:35 AM 11.1 °F -1.6 °F 3.6 °F 72% 30.14 in 10.0 mi NW 9.2 mph - N/A   Clear
5:55 AM 10.9 °F -1.8 °F 3.4 °F 72% 30.14 in 10.0 mi NW 9.2 mph - N/A   Clear
6:15 AM 10.8 °F -1.1 °F 3.2 °F 72% 30.14 in 10.0 mi NW 8.1 mph - N/A   Clear
6:35 AM 10.4 °F -0.4 °F 3.6 °F 74% 30.14 in 10.0 mi NW 6.9 mph - N/A   Clear
6:55 AM 10.4 °F 0.8 °F 3.2 °F 73% 30.15 in 10.0 mi WNW 5.8 mph - N/A   Clear
7:15 AM 10.6 °F -0.2 °F 3.9 °F 75% 30.15 in 10.0 mi WNW 6.9 mph - N/A   Clear
7:35 AM 11.3 °F -0.4 °F 3.9 °F 72% 30.15 in 10.0 mi WNW 8.1 mph - N/A   Clear
7:55 AM 12.0 °F -1.3 °F 4.1 °F 71% 30.15 in 10.0 mi WNW 10.4 mph - N/A   Clear
8:15 AM 12.9 °F 0.7 °F 4.5 °F 69% 30.16 in 10.0 mi WNW 9.2 mph - N/A   Clear
8:35 AM 13.6 °F 3.5 °F 4.3 °F 66% 30.16 in 10.0 mi WNW 6.9 mph - N/A   Clear
8:55 AM 14.7 °F 3.8 °F 4.8 °F 65% 30.16 in 10.0 mi WNW 8.1 mph - N/A   Clear
9:15 AM 15.4 °F 3.8 °F 5.2 °F 64% 30.15 in 10.0 mi NW 9.2 mph - N/A   Clear
9:35 AM 15.6 °F 3.2 °F 4.1 °F 60% 30.16 in 10.0 mi NW 10.4 mph 16.1 mph N/A   Clear
12:15 PM 18.1 °F 5.0 °F 5.5 °F 58% 30.12 in 10.0 mi WNW 12.7 mph 17.3 mph N/A   Overcast
12:35 PM 17.8 °F 4.6 °F 5.4 °F 58% 30.12 in 10.0 mi NW 12.7 mph 18.4 mph N/A   Overcast
12:55 PM 18.0 °F 3.6 °F 5.5 °F 58% 30.11 in 10.0 mi NW 15.0 mph 19.6 mph N/A   Overcast
1:15 PM 18.9 °F 7.2 °F 6.4 °F 58% 30.11 in 10.0 mi NW 10.4 mph 17.3 mph N/A   Overcast
1:35 PM 17.4 °F 4.7 °F 5.4 °F 59% 30.11 in 10.0 mi NW 11.5 mph - N/A   Overcast
1:55 PM 17.6 °F 2.7 °F 4.8 °F 57% 30.11 in 10.0 mi WNW 16.1 mph 20.7 mph N/A   Overcast
2:15 PM 17.6 °F 3.7 °F 5.2 °F 58% 30.10 in 10.0 mi WNW 13.8 mph 19.6 mph N/A   Overcast
2:35 PM 17.8 °F 5.2 °F 5.0 °F 57% 30.11 in 10.0 mi WNW 11.5 mph 21.9 mph N/A   Mostly Cloudy
2:55 PM 17.4 °F 1.9 °F 3.4 °F 54% 30.11 in 10.0 mi WNW 17.3 mph - N/A   Mostly Cloudy
3:15 PM 16.9 °F 4.1 °F 3.4 °F 55% 30.11 in 10.0 mi NW 11.5 mph 18.4 mph N/A   Mostly Cloudy
3:35 PM 16.9 °F 4.1 °F 3.9 °F 57% 30.12 in 10.0 mi NW 11.5 mph - N/A   Overcast
3:55 PM 16.3 °F 4.1 °F 3.7 °F 58% 30.12 in 10.0 mi NNW 10.4 mph - N/A   Overcast
4:15 PM 16.0 °F 2.9 °F 2.8 °F 56% 30.13 in 10.0 mi NNW 11.5 mph 17.3 mph N/A   Overcast
4:35 PM 15.4 °F 3.8 °F 2.7 °F 57% 30.13 in 10.0 mi NW 9.2 mph - N/A   Mostly Cloudy
4:55 PM 15.6 °F 1.8 °F 2.3 °F 56% 30.13 in 10.0 mi NNW 12.7 mph - N/A   Mostly Cloudy
5:15 PM 14.9 °F 2.3 °F 1.6 °F 56% 30.13 in 10.0 mi NW 10.4 mph - N/A   Scattered Clouds
5:35 PM 14.7 °F 2.9 °F 2.8 °F 59% 30.14 in 10.0 mi North 9.2 mph - N/A   Mostly Cloudy
5:55 PM 14.0 °F 2.9 °F 1.6 °F 58% 30.15 in 10.0 mi NNW 8.1 mph - N/A   Scattered Clouds
6:15 PM 13.8 °F 4.9 °F 1.9 °F 59% 30.16 in 10.0 mi NNW 5.8 mph - N/A   Clear
6:35 PM 13.5 °F 4.4 °F 2.3 °F 61% 30.16 in 10.0 mi NNW 5.8 mph - N/A   Clear
6:55 PM 12.9 °F 2.6 °F 2.3 °F 63% 30.16 in 10.0 mi NNW 6.9 mph - N/A   Clear
7:15 PM 12.9 °F 3.8 °F 2.5 °F 63% 30.16 in 10.0 mi NNW 5.8 mph - N/A   Clear
7:35 PM 12.6 °F 3.4 °F 2.8 °F 65% 30.16 in 10.0 mi NNW 5.8 mph - N/A   Clear
7:55 PM 12.6 °F 3.4 °F 3.6 °F 67% 30.16 in 10.0 mi North 5.8 mph - N/A   Clear
8:15 PM 12.0 °F 4.1 °F 4.1 °F 71% 30.16 in 10.0 mi North 4.6 mph - N/A   Clear
8:35 PM 12.0 °F 5.9 °F 3.2 °F 68% 30.17 in 10.0 mi North 3.5 mph - N/A   Clear
8:55 PM 11.8 °F - 3.2 °F 68% 30.17 in 10.0 mi Calm Calm - N/A   Clear
9:15 PM 12.2 °F - 2.1 °F 64% 30.17 in 10.0 mi Calm Calm - N/A   Clear
9:35 PM 12.2 °F 6.1 °F 1.9 °F 64% 30.17 in 10.0 mi North 3.5 mph - N/A   Clear
9:55 PM 11.7 °F - 2.5 °F 67% 30.17 in 10.0 mi Calm Calm - N/A   Clear
10:15 PM 12.2 °F - 1.4 °F 62% 30.17 in 10.0 mi Calm Calm - N/A   Clear
10:35 PM 11.7 °F - 1.8 °F 65% 30.17 in 10.0 mi Calm Calm - N/A   Clear
10:55 PM 11.1 °F - 2.5 °F 68% 30.16 in 10.0 mi Calm Calm - N/A   Clear
11:15 PM 11.3 °F - 1.9 °F 66% 30.16 in 10.0 mi Calm Calm - N/A   Clear
11:35 PM 10.9 °F - 2.7 °F 69% 30.16 in 10.0 mi Calm Calm - N/A   Clear
11:55 PM 10.0 °F - 2.8 °F 73% 30.16 in 10.0 mi Calm Calm - N/A   Clear